Regional Weather Roundup
Issued by NWS Kansas City/Pleasant Hill, MO

Home | Current Version | Previous Version | Text Only | Print | Product List | Glossary On
Versions: 1 2 3 4 5 6 7 8 9 10 11 12 13 14 15 16 17 18 19 20 21 22 23 24 25 26 27 28 29 30 31 32 33 34 35 36 37 38 39 40 41 42 43 44 45 46 47 48 49 50
000
ASUS43 KEAX 041610
RWREAX

WEATHER ROUNDUP FOR EASTERN KANSAS AND NORTHWEST MISSOURI
NATIONAL WEATHER SERVICE KANSAS CITY/PLEASANT HILL MO
1100 AM CDT TUE AUG 04 2015

KSZ040-057-103>105-MOZ028-029-037-043-041700-
...KANSAS CITY METROPOLITAN AREA...

CITY           SKY/WX    TMP DP  RH WIND       PRES   REMARKS
K.C. INTL      CLOUDY    83  71  67 CALM      30.00R
K.C. DOWNTOWN  PTSUNNY   87  70  56 N3        29.97S HX  92
LEES SUMMIT    PTSUNNY   84  69  60 CALM      29.99S
OLATHE - IXD   PTSUNNY   83  69  62 VRB3      30.00R
OLATHE - OJC   PTSUNNY   83  70  64 S5        29.99R
LAWRENCE       CLOUDY    82  71  69 CALM      29.99R

$$

MOZ001>008-011>017-020>025-030>033-038>040-044>046-053-054-041700-
...NORTHERN AND CENTRAL MISSOURI...

CITY           SKY/WX    TMP DP  RH WIND       PRES   REMARKS
ST. JOSEPH     PTSUNNY   74  67  78 NE13      30.03R
MOSBY          MOSUNNY   79  70  73 NE3       30.00R
WARRENSBURG    PTSUNNY   82  68  61 CALM      29.99S
WHITEMAN AFB   PTSUNNY   83  69  61 VRB2      29.98S
CLINTON        PTSUNNY   82  70  65 CALM      29.99S
SEDALIA        MOSUNNY   83  71  67 CALM      30.01R
WARSAW         NOT AVBL
CHILLICOTHE      N/A     74  68  81 N7        30.09R
KIRKSVILLE     RAIN      67  64  90 W8        30.09R FOG

$$

MOZ041-047>049-056>058-063>065-088>090-097-041700-
...EASTERN AND SOUTHERN MISSOURI...

CITY           SKY/WX    TMP DP  RH WIND       PRES   REMARKS
ST. LOUIS INTL PTSUNNY   85  67  54 S10       29.99F
SPIRIT OF STL  PTSUNNY   82  70  66 VRB6      29.97S
COLUMBIA       SUNNY     81  71  71 S7        30.00S
JEFFERSON CITY MOSUNNY   81  70  69 VRB3      29.99R
ROLLA          PTSUNNY   83  71  67 S6        30.00S
OSAGE BEACH    PTSUNNY   84  68  58 CALM      30.00S
SPRINGFIELD    PTSUNNY   86  68  54 S10       30.00F
BRANSON        CLOUDY    86  68  54 S3        30.04S
JOPLIN         CLOUDY    85  66  53 SW12      30.01R
WEST PLAINS    PTSUNNY   87  69  54 SW9       30.04S HX  91

$$

IAZ060-094-KSZ022-034>040-054-083-096-NEZ052-066-093-041700-
...KANSAS...SOUTHEAST NEBRASKA AND IOWA...

CITY           SKY/WX    TMP DP  RH WIND       PRES   REMARKS
TOPEKA         CLOUDY    81  72  74 CALM      29.99R
MANHATTAN      CLOUDY    84  69  60 NW5       29.96S
EMPORIA        CLOUDY    80  69  69 S9        29.97S
CHANUTE        CLOUDY    82  70  66 W10       29.99S
WICHITA        CLOUDY    78  68  71 S12       29.98R
OMAHA          LGT RAIN  68  66  93 SE14      30.03F
LINCOLN        PTSUNNY   73  69  87 E10       30.01F
FALLS CITY     CLOUDY    74  67  78 E10       30.02R
LAMONI         RAIN      65  63  93 E7        30.05F FOG
DES MOINES     CLOUDY    73  58  59 CALM      30.04S

$$



USA.gov is the U.S. government's official web portal to all federal, state and local government web resources and services.